Regional Weather Roundup
Issued by NWS

Home | Current Version | Previous Version | Text Only | Print | Product List | Glossary Off
Versions: 1 2 3 4 5 6 7 8 9 10 11 12 13 14 15 16 17 18 19 20 21 22 23 24 25 26 27 28 29 30 31 32 33 34 35 36 37 38 39 40 41 42 43 44 45 46 47 48 49 50

000
ASUS43 KMKX 211300
RWRWI

WISCONSIN REGIONAL WEATHER ROUNDUP
NATIONAL WEATHER SERVICE MILWAUKEE/SULLIVAN WI
700 AM CST FRI NOV 21 2014

NOTE: "FAIR" INDICATES FEW OR NO CLOUDS BELOW 12,000 FEET WITH NO
SIGNIFICANT WEATHER AND/OR OBSTRUCTIONS TO VISIBILITY.

WIZ001-002-006>008-014>016-023>028-211400-
NORTHWEST WISCONSIN

CITY           SKY/WX    TMP DP  RH WIND       PRES   REMARKS
SUPERIOR ARPT  MOCLDY     2  -3  78 SW6       30.18F WCI  -9
ASHLAND        PTCLDY     3  -2  79 S3        30.20F
HAYWARD        PTCLDY    -8 -13  78 SW3       30.19F
SIREN          PTCLDY     1  -3  83 S7        30.18F WCI -12
CUMBERLAND     PTCLDY    -8 -13  77 S5        30.20F WCI -19
RICE LAKE      PTCLDY    -3  -7  82 SE5       30.24F WCI -14
CHETEK         PTCLDY    -9 -13  80 SE5       30.24F WCI -20
LADYSMITH      CLEAR     -1  -5  83 SE6       30.25S WCI -13
EAU CLAIRE     NOT AVBL
MENOMONIE      PTCLDY    -1  -6  82 E3        30.27F
NEW RICHMOND   PTCLDY     4   0  83 S6        30.22S WCI  -7
OSCEOLA        PTCLDY     5   0  80 S7        30.25S WCI  -7
$$

WIZ003>005-009-010-017-018-211400-
NORTH CENTRAL WISCONSIN

CITY           SKY/WX    TMP DP  RH WIND       PRES   REMARKS
MANITOWISH WTR PTCLDY     0  -4  82 CALM      30.18S
ARBOR VITAE    CLEAR      4  -1  79 CALM      30.19S
WOODRUFF       CLEAR      4  -1  79 CALM      30.19S
RHINELANDER    PTCLDY     0  -4  83 SW5       30.21S WCI -10
EAGLE RIVER    PTCLDY     0  -5  78 CALM      30.20S
LAND O LAKES   PTCLDY    -3  -7  84 CALM      30.19F
PHILLIPS       PTCLDY     0  -4  83 S5        30.20S WCI -10
TOMAHAWK       PTCLDY    -2  -6  84 CALM      30.23S
MEDFORD        PTCLDY    -6 -10  81 S5        30.23R WCI -16
MERRILL        PTCLDY    -3  -6  85 CALM      30.25S
$$

WIZ029-030-035-036-043>047-211400-
CENTRAL WISCONSIN

CITY           SKY/WX    TMP DP  RH WIND       PRES   REMARKS
WAUSAU         PTCLDY     0  -5  79 E5        30.26F WCI -10
MOSINEE        NOT AVBL
MARSHFIELD     MOCLDY    -3  -7  82 SW6       30.28S WCI -15
STEVENS POINT  PTCLDY    -5  -9  83 S3        30.30F
WAUPACA        PTCLDY     4  -2  79 CALM      30.35S
WAUTOMA        NOT AVBL
WISC RAPIDS    PTCLDY    -3 -10  72 SW3       30.33F
CAMP DOUGLAS   NOT AVBL
$$

WIZ011>013-019>022-031-037>040-048>050-211400-
NORTHEAST WISCONSIN

CITY           SKY/WX    TMP DP  RH WIND       PRES   REMARKS
ANTIGO         CLOUDY     0  -3  85 S3        30.25R
SHAWANO        FAIR       7   1  78 CALM      30.34S
OCONTO         MOCLDY     7   1  76 W5        30.35R WCI  -2
STURGEON BAY   MOCLDY    12   7  79 W7        30.34R WCI   2
GREEN BAY      PTCLDY     8   1  73 SW5       30.36S WCI   0
MANITOWOC      NOT AVBL
APPLETON       MOCLDY     5   0  78 VRB3      30.35S
CLINTONVILLE   PTCLDY     7   1  78 CALM      30.34S
OSHKOSH        MOCLDY     4  -2  76 SW5       30.36S WCI  -5
$$

WIZ032>034-041-042-053>061-211400-
SOUTHWEST WISCONSIN

CITY           SKY/WX    TMP DP  RH WIND       PRES   REMARKS
LA CROSSE      PTCLDY     5   0  79 SE6       30.34S WCI  -6
SPARTA         PTCLDY    -7 -11  82 CALM      30.34S
VIROQUA        PTCLDY     8   3  82 SE7       30.29R WCI  -4
BOSCOBEL       PTCLDY    -2  -7  79 CALM      30.39R
PRAIRIE DU CHI PTCLDY     5   1  84 SE3       30.37S
PLATTEVILLE    PTCLDY     5   1  86 CALM      30.37R
$$

WIZ056-057-062-063-064-067-068-211400-
SOUTH CENTRAL WISCONSIN

CITY           SKY/WX    TMP DP  RH WIND       PRES   REMARKS
REEDSBURG      PTCLDY     0  -3  84 CALM      30.35R
BARABOO/DELLS  PTCLDY     2  -3  82 S5        30.34S WCI  -8
LONE ROCK      NOT AVBL
MINERAL POINT  FLURRIES   5   1  85 S3        30.34R
MADISON        PTCLDY     4  -1  80 CALM      30.37R
MIDDLETON      PTCLDY     4  -1  80 CALM      30.37R
WATERTOWN      MOCLDY     1  -2  85 CALM      30.38R
MONROE         CLEAR      9   5  85 SE7       30.36R WCI  -3
JANESVILLE     CLEAR      5   0  78 CALM      30.29R
$$

WIZ051-052-058>065-066-070>072-211400-
SOUTHEAST WISCONSIN

CITY           SKY/WX    TMP DP  RH WIND       PRES   REMARKS
MILWAUKEE      PTCLDY    10   0  63 SW6       30.40R WCI   0
WAUKESHA       CLEAR      5   0  78 SW5       30.39R WCI  -4
MILWAUKEE/TIMM NOT AVBL
RACINE         PTCLDY     9   0  67 W6        30.42R WCI  -1
BURLINGTON     PTCLDY    -1  -5  83 CALM      30.39S
KENOSHA        PTCLDY     8   1  73 SW5       30.41R WCI   0
FOND DU LAC    MOCLDY     3  -3  76 CALM      30.38R
SHEBOYGAN      MOCLDY     6   1  80 SW5       30.38R WCI  -3
WEST BEND      MOCLDY     5   0  78 CALM      30.37R
JUNEAU         MOCLDY     2  -3  80 CALM      30.37F
$$

LSZ147-162-211400-
LAKE SUPERIOR

STATION/POSITION TIME  TEMP    WIND        PRES    WAVE
                       AIR SEA DIR/SP/G            HT/PER
                 (UTC) (F)     (DEG/KT/KT) (MB)    (FT/S)
DEVILS ISLAND    1200   16     210/ 10/ 15 1023.9F
PORT WING        1240    8     190/  7/ 10 1022.4F
SAXON HARBOR     1200    8     190/  5/ 10 1023.4F
$$

LMZ867-665-643>646-211400-
LAKE MICHIGAN

STATION/POSITION TIME  TEMP    WIND        PRES    WAVE
                       AIR SEA DIR/SP/G            HT/PER
                 (UTC) (F)     (DEG/KT/KT) (MB)    (FT/S)
CHAMBERS ISLAND  1200   15     230/  8/ 12 1026.8R
N MID LAKE BUOY  1150   21 42  280/ 10/ 16 1027.1R   2/ 4
NORTHPORT PIER   1207   17     250/  3/  8 1026.8R
SISTER BAY       1228          300/ 13/ 16   N/A
ALGOMA LAKESHORE 1113          320/  5/  8   N/A
KEWAUNEE LAKESHO 1200    7     280/  4/  6 1027.0R
SHEBOYGAN LAKESH 1200   11 34  270/  9/ 11 1030.1R
PORT WASHINGTON  1240   10     290/  8/ 10 1029.8R
ATWATER BUOY     1200   17     300/ 10/ 14 1029.1R
MILWAUKEE LAKESH 1200   13     280/  7/  9   N/A
S MID LAKE BUOY  1150   23 43  310/  6/ 10 1030.2R   3/ 6
KENOSHA   LAKESH 1200   12     270/  7/ 10 1029.5R
$$

TC  - TEMPERATURE IN CELSIUS
VSB - VISIBILITY IN STATUTE MILES
WCI - WIND CHILL INDEX
HX  - HEAT INDEX




USA.gov is the U.S. government's official web portal to all federal, state and local government web resources and services.